sat.trackr.live / text

‹ back to catalog

GREGOIRE

NORAD 56946 · 2023-084Q

PAYLOAD ACTIVE UNKNOWN

§ Identity

Operator
Country
BEL
Launch date
2023-06-12
Launch site
AFWTR
Launch vehicle
Mass (kg)
RCS (m²)

External: N2YO · Heavens-Above · Gunter

§ Orbital elements

Epoch: 2026-05-25T02:48:23.037984Z

Period
93.63 min
Inclination
97.6210°
Eccentricity
0.0006909
Mean motion
15.37955472 rev/d
Perigee alt
447.4 km
Apogee alt
456.9 km
Semi-major
6,830.3 km
B*
2.0394e-4
RAAN
288.1042°
Arg perigee
49.9795°
Mean anomaly
310.2054°
Rev number
16,416

§ Raw data

GREGOIRE1 56946U 23084Q   26145.11693331  .00007530  00000+0  20394-3 0  99972 56946  97.6210 288.1042 0006909  49.9795 310.2054 15.37955472164160

JSON: /api/v1/satellites/56946 · /tle

For live sub-satellite position, see the globe view (requires WebGL).

§ Visibility from observer

Set your observer location to see the next 7 days of passes ≥ 10°. The values pass through the URL so the page stays shareable.

No JS? Fill the form by hand. The geolocation button needs JavaScript.

§ Radio — SatNOGS DB

ModeDescriptionDownlinkUplink
FM Mode S - Transmitter 2.223 GHz
FM Mode X - Transmitter 8.320 GHz

2 transmitters · refreshed weekly from db.satnogs.org